Flag for Russia Weather past 2 weeks in Sochi, Russia

Now
54 °F

Passing clouds.


Feels Like: 49 °F
Forecast: 68 / 80 °F
Wind: 15 mph from East

Location: Adler

Current Time: Oct 23, 2014 at 4:49:56 AM

Latest Report: Oct 23, 2014 at 4:00 AM


Visibility: N/A

Pressure: 29.89 "Hg

Humidity: 51%

Dew point: 36 °F

Location of SochiLocation

Historic Weather in Sochi — Graph

°F

Sochi temperature yesterday

Maximum temperature yesterday: 68 °F (at 1:30 PM)
Minimum temperature yesterday: 50 °F (at 2:00 AM)
Average temperature yesterday: 58 °F

Past Weeks' High & Low Weather Summary

 TemperatureHumidityPressure
High72 °F (Oct 8, 12:30 PM)94% (Oct 10, 9:30 PM)30.24 "Hg (Oct 10, 9:30 PM)
Low46 °F (Oct 20, 5:30 AM)30% (Oct 22, 1:30 PM)29.62 "Hg (Oct 18, 5:30 PM)
Average60 °F75%30.02 "Hg
* Reported Oct 8 3:00 AM — Oct 23 3:30 AM, Sochi, Weather by CustomWeather, © 2014

Note: Actual official high and low records may vary slightly from our data, if they occured in-between our weather recording intervals... More about our weather records

Advertising

Sochi weather history for previous 24 hours

 ConditionsComfort  
Time TempWeatherWind HumidityBarometerVisibility
3:30 AM
Oct 23
54 °FPassing clouds.10 mph54%29.89 "HgN/A
3:00 AM54 °FPassing clouds.17 mph54%29.89 "HgN/A
2:30 AM54 °FPassing clouds.17 mph54%29.89 "HgN/A
2:00 AM54 °FPassing clouds.15 mph58%29.89 "HgN/A
1:30 AM54 °FPassing clouds.8 mph58%29.89 "HgN/A
1:00 AM54 °FPassing clouds.8 mph58%29.92 "HgN/A
12:30 AM54 °FPassing clouds.15 mph63%29.92 "HgN/A
12:00 AM54 °FPassing clouds.13 mph58%29.92 "HgN/A
11:30 PM
Oct 22
54 °FPassing clouds.1 mph54%29.92 "HgN/A
11:00 PM54 °FPassing clouds.6 mph58%29.92 "HgN/A
10:30 PM55 °FPassing clouds.6 mph55%29.92 "HgN/A
10:00 PM55 °FPassing clouds.15 mph59%29.89 "HgN/A
9:30 PM55 °FPassing clouds.13 mph59%29.89 "HgN/A
9:00 PM54 °FPassing clouds.8 mph63%29.89 "HgN/A
8:30 PM54 °FPassing clouds.10 mph67%29.89 "HgN/A
8:00 PM54 °FPassing clouds.6 mph67%29.89 "HgN/A
7:30 PM55 °FPassing clouds.10 mph63%29.89 "HgN/A
7:00 PM57 °FPartly sunny.10 mph59%29.89 "HgN/A
6:30 PM59 °FPartly sunny.8 mph51%29.89 "HgN/A
6:00 PM66 °FPartly sunny.6 mph43%29.89 "HgN/A
5:30 PM66 °FScattered clouds.6 mph37%29.89 "HgN/A
5:00 PM68 °FScattered clouds.6 mph30%29.89 "HgN/A
4:30 PM68 °FScattered clouds.6 mph30%29.89 "HgN/A
4:00 PM68 °FScattered clouds.6 mph43%29.89 "HgN/A
3:30 PM68 °FPassing clouds.6 mph38%29.89 "HgN/A
3:00 PM68 °FPassing clouds.6 mph40%29.89 "HgN/A
2:30 PM68 °FPassing clouds.8 mph35%29.89 "HgN/A
2:00 PM68 °FPassing clouds.6 mph33%29.89 "HgN/A
1:30 PM68 °FPassing clouds.6 mph30%29.92 "HgN/A
1:00 PM66 °FPassing clouds.6 mph32%29.92 "HgN/A
12:30 PM66 °FBroken clouds.3 mph40%29.92 "HgN/A
12:00 PM64 °FBroken clouds.6 mph46%29.92 "HgN/A
11:30 AM63 °FBroken clouds.6 mph49%29.92 "HgN/A
11:00 AM61 °FPartly sunny.8 mph52%29.92 "HgN/A
10:30 AM55 °FPartly sunny.10 mph67%29.92 "HgN/A
10:00 AM55 °FPartly sunny.10 mph72%29.92 "HgN/A
9:30 AM54 °FPartly sunny.13 mph72%29.92 "HgN/A
9:00 AM54 °FPartly sunny.10 mph77%29.92 "HgN/A
8:30 AM52 °FPassing clouds.10 mph82%29.92 "HgN/A
8:00 AM52 °FPassing clouds.10 mph77%29.92 "HgN/A
7:30 AM54 °FPassing clouds.8 mph72%29.92 "HgN/A
7:00 AM54 °FPassing clouds.8 mph72%29.92 "HgN/A
6:30 AM54 °FPassing clouds.6 mph72%29.89 "HgN/A
6:00 AM52 °FPassing clouds.8 mph77%29.89 "HgN/A
5:30 AM52 °FPassing clouds.8 mph77%29.89 "HgN/A
4:30 AM52 °FPassing clouds.10 mph82%29.92 "HgN/A
4:00 AM52 °FPassing clouds.8 mph82%29.92 "HgN/A
Weather by CustomWeather, © 2014

See weather overviewHow to use our weather pages